Orbital Elements at Epoch 2459200.5 (2020-Dec-17.0) TDB
Reference: JPL 20 (heliocentric ecliptic J2000)
Element | Value | Uncertainty (1-sigma) | Units |
e | .1205614225706859 | 3.3926e-08 | |
a | 2.389026803705014 | 9.9017e-09 | au |
q | 2.101002333690838 | 8.5691e-08 | au |
i | 2.304591083715017 | 3.3105e-06 | deg |
node | 67.10230950811574 | 8.513e-05 | deg |
peri | 354.5669129982428 | 8.6355e-05 | deg |
M | 329.5558679115377 | 1.5213e-05 | deg |
tp | 2459314.559393301074 (2021-Apr-10.05939330) | 5.7241e-05 | TDB |
period | 1348.745349976587 3.69 | 8.3851e-06 2.296e-08 | d yr |
n | .2669147293121339 | 1.6594e-09 | deg/d |
Q | 2.677051273719189 | 1.1095e-08 | au |
|
| | Orbit Determination Parameters
Additional Information
|